Time,TemperatureF,DewpointF,PressureIn,WindDirection,WindDirectionDegrees,WindSpeedMPH,WindSpeedGustMPH,Humidity,HourlyPrecipIn,Conditions,Clouds,dailyrainin,SoftwareType,DateUTC
2013-05-25 00:00:00,43.6,38.5,29.96,NNW,333,10.0,14.0,82,0.05,,---,0.76,VWS V14.01,2013-05-25 04:00:00,
2013-05-25 00:01:00,43.6,38.5,29.96,NNW,348,6.0,14.0,82,0.05,,---,0.76,VWS V14.01,2013-05-25 04:01:00,
2013-05-25 00:02:00,43.6,38.5,29.97,NW,322,14.0,16.0,82,0.05,,---,0.00,VWS V14.01,2013-05-25 04:02:00,
2013-05-25 00:04:00,43.5,38.4,29.97,NW,313,9.0,16.0,82,0.05,,---,0.00,VWS V14.01,2013-05-25 04:04:00,
2013-05-25 00:09:00,43.5,38.4,29.97,NW,317,4.0,16.0,82,0.05,,---,0.00,VWS V14.01,2013-05-25 04:09:00,
2013-05-25 00:14:00,43.4,38.3,29.97,NNW,338,8.0,16.0,82,0.06,,---,0.01,VWS V14.01,2013-05-25 04:14:00,
2013-05-25 00:15:00,43.4,38.3,29.97,NW,315,7.0,16.0,82,0.06,,---,0.01,VWS V14.01,2013-05-25 04:15:00,
2013-05-25 00:19:00,43.4,38.3,29.97,NW,317,9.0,11.0,82,0.06,,---,0.01,VWS V14.01,2013-05-25 04:19:00,
2013-05-25 00:24:00,43.4,38.3,29.97,NW,305,4.0,12.0,82,0.06,,---,0.01,VWS V14.01,2013-05-25 04:24:00,
2013-05-25 00:29:00,43.3,38.5,29.96,NW,310,7.0,12.0,83,0.06,,---,0.01,VWS V14.01,2013-05-25 04:29:00,
2013-05-25 00:30:00,43.3,38.2,29.96,WNW,294,5.0,12.0,82,0.06,,---,0.01,VWS V14.01,2013-05-25 04:30:00,
2013-05-25 00:34:00,43.3,38.5,29.96,NNW,329,7.0,10.0,83,0.04,,---,0.01,VWS V14.01,2013-05-25 04:34:00,
2013-05-25 00:39:00,43.3,38.5,29.96,NW,325,6.0,14.0,83,0.04,,---,0.01,VWS V14.01,2013-05-25 04:39:00,
2013-05-25 00:44:00,43.4,38.6,29.96,WNW,297,8.0,14.0,83,0.05,,---,0.02,VWS V14.01,2013-05-25 04:44:00,
2013-05-25 00:45:00,43.4,38.6,29.96,NNW,333,11.0,14.0,83,0.05,,---,0.02,VWS V14.01,2013-05-25 04:45:00,
2013-05-25 00:49:00,43.4,38.6,29.96,NW,317,5.0,13.0,83,0.03,,---,0.02,VWS V14.01,2013-05-25 04:49:00,
2013-05-25 00:54:00,43.4,38.6,29.95,WNW,286,8.0,13.0,83,0.03,,---,0.02,VWS V14.01,2013-05-25 04:54:00,
2013-05-25 00:59:00,43.4,38.6,29.95,NNW,333,7.0,13.0,83,0.03,,---,0.02,VWS V14.01,2013-05-25 04:59:00,
2013-05-25 01:00:00,43.4,38.6,29.95,NW,321,5.0,13.0,83,0.03,,---,0.02,VWS V14.01,2013-05-25 05:00:00,
2013-05-25 01:04:00,43.4,38.6,29.95,NW,318,7.0,13.0,83,0.02,,---,0.02,VWS V14.01,2013-05-25 05:04:00,
2013-05-25 01:09:00,43.4,38.6,29.95,WNW,283,5.0,13.0,83,0.02,,---,0.02,VWS V14.01,2013-05-25 05:09:00,
2013-05-25 01:14:00,43.4,38.6,29.95,NNW,344,7.0,13.0,83,0.02,,---,0.02,VWS V14.01,2013-05-25 05:14:00,
2013-05-25 01:15:00,43.4,38.6,29.95,NW,306,6.0,13.0,83,0.03,,---,0.03,VWS V14.01,2013-05-25 05:15:00,
2013-05-25 01:19:00,43.4,38.6,29.95,WNW,292,6.0,12.0,83,0.02,,---,0.03,VWS V14.01,2013-05-25 05:19:00,
2013-05-25 01:24:00,43.4,38.6,29.95,WNW,301,6.0,12.0,83,0.02,,---,0.03,VWS V14.01,2013-05-25 05:24:00,
2013-05-25 01:29:00,43.4,38.6,29.94,NW,304,7.0,12.0,83,0.02,,---,0.03,VWS V14.01,2013-05-25 05:29:00,
2013-05-25 01:30:00,43.4,38.6,29.94,NNW,339,5.0,12.0,83,0.02,,---,0.03,VWS V14.01,2013-05-25 05:30:00,
2013-05-25 01:34:00,43.4,38.6,29.94,NW,314,6.0,11.0,83,0.03,,---,0.04,VWS V14.01,2013-05-25 05:34:00,
2013-05-25 01:39:00,43.4,38.6,29.94,NW,309,5.0,11.0,83,0.03,,---,0.04,VWS V14.01,2013-05-25 05:39:00,
2013-05-25 01:44:00,43.4,38.6,29.94,NW,309,8.0,12.0,83,0.03,,---,0.04,VWS V14.01,2013-05-25 05:44:00,
2013-05-25 01:45:00,43.4,38.6,29.94,NNW,331,9.0,12.0,83,0.03,,---,0.04,VWS V14.01,2013-05-25 05:45:00,
2013-05-25 01:49:00,43.4,38.6,29.94,WNW,294,5.0,12.0,83,0.02,,---,0.04,VWS V14.01,2013-05-25 05:49:00,
2013-05-25 01:54:00,43.4,38.6,29.94,NW,305,5.0,12.0,83,0.03,,---,0.05,VWS V14.01,2013-05-25 05:54:00,
2013-05-25 02:00:00,43.4,38.6,29.93,NW,319,8.0,12.0,83,0.03,,---,0.05,VWS V14.01,2013-05-25 06:00:00,
2013-05-25 02:05:00,43.4,38.6,29.93,West,274,5.0,10.0,83,0.03,,---,0.05,VWS V14.01,2013-05-25 06:05:00,
2013-05-25 02:10:00,43.4,38.6,29.93,WNW,283,10.0,11.0,83,0.03,,---,0.05,VWS V14.01,2013-05-25 06:10:00,
2013-05-25 02:15:00,43.4,38.6,29.93,NW,315,11.0,11.0,83,0.03,,---,0.05,VWS V14.01,2013-05-25 06:15:00,
2013-05-25 02:20:00,43.3,38.5,29.93,West,279,10.0,10.0,83,0.02,,---,0.05,VWS V14.01,2013-05-25 06:20:00,
2013-05-25 02:25:00,43.3,38.5,29.93,NW,321,9.0,12.0,83,0.03,,---,0.06,VWS V14.01,2013-05-25 06:25:00,
2013-05-25 02:30:00,43.3,38.5,29.93,NNW,341,3.0,12.0,83,0.03,,---,0.06,VWS V14.01,2013-05-25 06:30:00,
2013-05-25 02:35:00,43.3,38.5,29.93,NW,321,6.0,12.0,83,0.03,,---,0.06,VWS V14.01,2013-05-25 06:35:00,
2013-05-25 02:40:00,43.3,38.5,29.93,WNW,296,8.0,15.0,83,0.03,,---,0.06,VWS V14.01,2013-05-25 06:40:00,
2013-05-25 02:45:00,43.3,38.5,29.92,NW,304,12.0,15.0,83,0.03,,---,0.06,VWS V14.01,2013-05-25 06:45:00,
2013-05-25 02:50:00,43.3,38.5,29.92,WNW,302,7.0,12.0,83,0.03,,---,0.07,VWS V14.01,2013-05-25 06:50:00,
2013-05-25 02:55:00,43.3,38.5,29.92,West,259,7.0,12.0,83,0.03,,---,0.07,VWS V14.01,2013-05-25 06:55:00,
2013-05-25 03:00:00,43.3,38.5,29.92,NW,310,6.0,12.0,83,0.03,,---,0.07,VWS V14.01,2013-05-25 07:00:00,
2013-05-25 03:05:00,43.3,38.5,29.92,NW,318,11.0,14.0,83,0.02,,---,0.07,VWS V14.01,2013-05-25 07:05:00,
2013-05-25 03:10:00,43.4,38.6,29.92,NW,305,9.0,14.0,83,0.02,,---,0.07,VWS V14.01,2013-05-25 07:10:00,
2013-05-25 03:15:00,43.4,38.3,29.92,NW,308,7.0,15.0,82,0.02,,---,0.07,VWS V14.01,2013-05-25 07:15:00,
2013-05-25 03:20:00,43.4,38.3,29.92,NW,323,5.0,12.0,82,0.02,,---,0.07,VWS V14.01,2013-05-25 07:20:00,
2013-05-25 03:25:00,43.4,38.3,29.92,NNW,327,5.0,12.0,82,0.03,,---,0.08,VWS V14.01,2013-05-25 07:25:00,
2013-05-25 03:30:00,43.4,38.3,29.92,NW,316,3.0,14.0,82,0.03,,---,0.08,VWS V14.01,2013-05-25 07:30:00,
2013-05-25 03:35:00,43.4,38.3,29.92,NW,315,7.0,14.0,82,0.02,,---,0.08,VWS V14.01,2013-05-25 07:35:00,
2013-05-25 03:40:00,43.4,38.3,29.92,NW,310,5.0,14.0,82,0.02,,---,0.08,VWS V14.01,2013-05-25 07:40:00,
2013-05-25 03:45:00,43.4,38.3,29.92,NW,323,6.0,14.0,82,0.02,,---,0.08,VWS V14.01,2013-05-25 07:45:00,
2013-05-25 03:50:00,43.3,38.2,29.92,WNW,301,7.0,11.0,82,0.02,,---,0.08,VWS V14.01,2013-05-25 07:50:00,
2013-05-25 03:55:00,43.3,38.2,29.92,WNW,302,8.0,11.0,82,0.02,,---,0.08,VWS V14.01,2013-05-25 07:55:00,
2013-05-25 04:00:00,43.3,38.5,29.92,NW,313,5.0,11.0,83,0.02,,---,0.08,VWS V14.01,2013-05-25 08:00:00,
2013-05-25 04:05:00,43.3,38.5,29.92,NW,315,8.0,12.0,83,0.01,,---,0.08,VWS V14.01,2013-05-25 08:05:00,
2013-05-25 04:10:00,43.2,38.4,29.92,NW,321,7.0,12.0,83,0.01,,---,0.08,VWS V14.01,2013-05-25 08:10:00,
2013-05-25 04:15:00,43.2,38.4,29.92,NNW,331,10.0,12.0,83,0.01,,---,0.08,VWS V14.01,2013-05-25 08:15:00,
2013-05-25 04:16:00,43.2,38.4,29.92,NW,310,4.0,12.0,83,0.01,,---,0.08,VWS V14.01,2013-05-25 08:16:00,
2013-05-25 04:21:00,43.2,38.4,29.92,WNW,302,5.0,13.0,83,0.01,,---,0.08,VWS V14.01,2013-05-25 08:21:00,
2013-05-25 04:26:00,43.3,38.5,29.92,NNW,330,6.0,13.0,83,0.01,,---,0.08,VWS V14.01,2013-05-25 08:26:00,
2013-05-25 04:30:00,43.3,38.5,29.92,WNW,297,6.0,13.0,83,0.01,,---,0.08,VWS V14.01,2013-05-25 08:30:00,
2013-05-25 04:31:00,43.3,38.5,29.92,NW,318,3.0,13.0,83,0.01,,---,0.08,VWS V14.01,2013-05-25 08:31:00,
2013-05-25 04:36:00,43.3,38.2,29.92,NW,313,6.0,12.0,82,0.00,,---,0.08,VWS V14.01,2013-05-25 08:36:00,
2013-05-25 04:41:00,43.3,38.2,29.92,NW,306,7.0,12.0,82,0.00,,---,0.08,VWS V14.01,2013-05-25 08:41:00,
2013-05-25 04:45:00,43.3,38.2,29.92,WNW,293,7.0,12.0,82,0.00,,---,0.08,VWS V14.01,2013-05-25 08:45:00,
2013-05-25 04:46:00,43.3,38.2,29.92,NW,309,8.0,12.0,82,0.00,,---,0.08,VWS V14.01,2013-05-25 08:46:00,
2013-05-25 04:51:00,43.3,38.2,29.92,NW,304,8.0,9.0,82,0.00,,---,0.08,VWS V14.01,2013-05-25 08:51:00,
2013-05-25 04:56:00,43.4,38.3,29.92,NW,306,6.0,14.0,82,0.00,,---,0.08,VWS V14.01,2013-05-25 08:56:00,
2013-05-25 05:00:00,43.4,38.3,29.92,NW,317,6.0,14.0,82,0.00,,---,0.08,VWS V14.01,2013-05-25 09:00:00,
2013-05-25 05:01:00,43.4,38.3,29.92,NW,317,6.0,14.0,82,0.00,,---,0.08,VWS V14.01,2013-05-25 09:01:00,
2013-05-25 05:06:00,43.4,38.3,29.92,NW,319,8.0,10.0,82,0.00,,---,0.08,VWS V14.01,2013-05-25 09:06:00,
2013-05-25 05:11:00,43.5,38.4,29.92,NW,307,8.0,11.0,82,0.00,,---,0.08,VWS V14.01,2013-05-25 09:11:00,
2013-05-25 05:15:00,43.6,38.5,29.92,NW,310,2.0,14.0,82,0.00,,---,0.08,VWS V14.01,2013-05-25 09:15:00,
2013-05-25 05:16:00,43.6,38.5,29.92,NW,312,4.0,4.0,82,0.00,,---,0.08,VWS V14.01,2013-05-25 09:16:00,
2013-05-25 05:21:00,43.6,38.5,29.92,NNW,336,5.0,11.0,82,0.00,,---,0.08,VWS V14.01,2013-05-25 09:21:00,
2013-05-25 05:26:00,43.7,38.6,29.93,WNW,290,6.0,13.0,82,0.00,,---,0.08,VWS V14.01,2013-05-25 09:26:00,
2013-05-25 05:30:00,43.8,38.7,29.93,NNW,331,7.0,14.0,82,0.00,,---,0.08,VWS V14.01,2013-05-25 09:30:00,
2013-05-25 05:31:00,43.7,38.6,29.93,NNW,331,8.0,8.0,82,0.00,,---,0.08,VWS V14.01,2013-05-25 09:31:00,
2013-05-25 05:36:00,43.7,38.6,29.93,NNW,331,11.0,11.0,82,0.00,,---,0.08,VWS V14.01,2013-05-25 09:36:00,
2013-05-25 05:41:00,43.7,38.6,29.93,West,273,3.0,12.0,82,0.00,,---,0.08,VWS V14.01,2013-05-25 09:41:00,
2013-05-25 05:45:00,43.7,38.6,29.93,West,273,8.0,14.0,82,0.00,,---,0.08,VWS V14.01,2013-05-25 09:45:00,
2013-05-25 05:46:00,43.7,38.6,29.93,WNW,287,4.0,9.0,82,0.00,,---,0.08,VWS V14.01,2013-05-25 09:46:00,
2013-05-25 05:51:00,43.8,38.7,29.93,NW,305,7.0,12.0,82,0.00,,---,0.08,VWS V14.01,2013-05-25 09:51:00,
2013-05-25 05:56:00,43.7,38.6,29.93,West,263,4.0,12.0,82,0.01,,---,0.09,VWS V14.01,2013-05-25 09:56:00,
2013-05-25 06:00:00,43.8,38.7,29.93,NNW,331,9.0,12.0,82,0.01,,---,0.09,VWS V14.01,2013-05-25 10:00:00,
2013-05-25 06:01:00,43.8,38.7,29.93,West,279,9.0,11.0,82,0.01,,---,0.09,VWS V14.01,2013-05-25 10:01:00,
2013-05-25 06:06:00,43.8,38.7,29.93,WNW,300,9.0,15.0,82,0.01,,---,0.09,VWS V14.01,2013-05-25 10:06:00,
2013-05-25 06:11:00,43.8,38.7,29.93,NW,305,6.0,15.0,82,0.01,,---,0.09,VWS V14.01,2013-05-25 10:11:00,
2013-05-25 06:15:00,43.8,38.7,29.93,NW,319,7.0,15.0,82,0.01,,---,0.09,VWS V14.01,2013-05-25 10:15:00,
2013-05-25 06:16:00,43.8,38.7,29.93,NW,315,7.0,7.0,82,0.01,,---,0.09,VWS V14.01,2013-05-25 10:16:00,
2013-05-25 06:21:00,43.9,38.8,29.93,NW,310,6.0,10.0,82,0.01,,---,0.09,VWS V14.01,2013-05-25 10:21:00,
2013-05-25 06:26:00,43.9,38.8,29.93,NW,304,4.0,10.0,82,0.01,,---,0.09,VWS V14.01,2013-05-25 10:26:00,
2013-05-25 06:30:00,43.9,38.8,29.93,NNW,346,7.0,12.0,82,0.01,,---,0.09,VWS V14.01,2013-05-25 10:30:00,
2013-05-25 06:32:00,43.9,38.8,29.93,NW,315,9.0,11.0,82,0.01,,---,0.09,VWS V14.01,2013-05-25 10:32:00,
2013-05-25 06:37:00,44.0,38.9,29.93,West,273,6.0,11.0,82,0.01,,---,0.09,VWS V14.01,2013-05-25 10:37:00,
2013-05-25 06:42:00,44.0,38.9,29.93,WNW,291,5.0,12.0,82,0.02,,---,0.10,VWS V14.01,2013-05-25 10:42:00,
2013-05-25 06:45:00,44.0,38.9,29.93,North,350,7.0,13.0,82,0.02,,---,0.10,VWS V14.01,2013-05-25 10:45:00,
2013-05-25 06:47:00,44.0,38.9,29.94,West,278,10.0,10.0,82,0.02,,---,0.10,VWS V14.01,2013-05-25 10:47:00,
2013-05-25 06:52:00,44.1,39.0,29.94,WNW,292,10.0,13.0,82,0.02,,---,0.10,VWS V14.01,2013-05-25 10:52:00,
2013-05-25 06:57:00,44.2,39.1,29.94,NNW,336,4.0,13.0,82,0.02,,---,0.10,VWS V14.01,2013-05-25 10:57:00,
2013-05-25 07:00:00,44.2,39.1,29.94,West,279,6.0,13.0,82,0.02,,---,0.10,VWS V14.01,2013-05-25 11:00:00,
2013-05-25 07:02:00,44.2,39.1,29.94,WNW,292,6.0,9.0,82,0.01,,---,0.10,VWS V14.01,2013-05-25 11:02:00,
2013-05-25 07:07:00,44.3,39.2,29.94,West,278,8.0,10.0,82,0.01,,---,0.10,VWS V14.01,2013-05-25 11:07:00,
2013-05-25 07:12:00,44.4,39.6,29.94,NW,315,3.0,10.0,83,0.01,,---,0.10,VWS V14.01,2013-05-25 11:12:00,
2013-05-25 07:15:00,44.4,39.6,29.94,WNW,303,4.0,10.0,83,0.01,,---,0.10,VWS V14.01,2013-05-25 11:15:00,
2013-05-25 07:17:00,44.4,39.6,29.94,NW,325,8.0,9.0,83,0.01,,---,0.10,VWS V14.01,2013-05-25 11:17:00,
2013-05-25 07:22:00,44.5,39.7,29.94,WNW,298,5.0,9.0,83,0.01,,---,0.10,VWS V14.01,2013-05-25 11:22:00,
2013-05-25 07:27:00,44.6,39.8,29.94,WNW,290,4.0,13.0,83,0.01,,---,0.10,VWS V14.01,2013-05-25 11:27:00,
2013-05-25 07:30:00,44.6,39.8,29.94,NW,309,4.0,13.0,83,0.01,,---,0.10,VWS V14.01,2013-05-25 11:30:00,
2013-05-25 07:32:00,44.7,39.9,29.94,NNW,330,5.0,7.0,83,0.01,,---,0.10,VWS V14.01,2013-05-25 11:32:00,
2013-05-25 07:37:00,44.7,39.5,29.94,NNW,336,7.0,11.0,82,0.02,,---,0.11,VWS V14.01,2013-05-25 11:37:00,
2013-05-25 07:42:00,45.0,39.8,29.94,WNW,298,6.0,11.0,82,0.02,,---,0.11,VWS V14.01,2013-05-25 11:42:00,
2013-05-25 07:45:00,45.1,39.9,29.94,NW,304,4.0,11.0,82,0.02,,---,0.11,VWS V14.01,2013-05-25 11:45:00,
2013-05-25 07:47:00,45.1,39.9,29.94,NW,311,4.0,6.0,82,0.01,,---,0.11,VWS V14.01,2013-05-25 11:47:00,
2013-05-25 07:52:00,45.3,40.1,29.94,NW,322,5.0,16.0,82,0.01,,---,0.11,VWS V14.01,2013-05-25 11:52:00,
2013-05-25 07:57:00,45.4,40.2,29.94,NNW,345,8.0,16.0,82,0.01,,---,0.11,VWS V14.01,2013-05-25 11:57:00,
2013-05-25 08:00:00,45.5,40.3,29.94,NW,318,6.0,16.0,82,0.01,,---,0.11,VWS V14.01,2013-05-25 12:00:00,
2013-05-25 08:02:00,45.6,40.4,29.94,WNW,301,7.0,8.0,82,0.01,,---,0.11,VWS V14.01,2013-05-25 12:02:00,
2013-05-25 08:07:00,45.8,40.3,29.94,NW,325,8.0,14.0,81,0.01,,---,0.11,VWS V14.01,2013-05-25 12:07:00,
2013-05-25 08:12:00,46.0,40.5,29.94,NW,323,12.0,16.0,81,0.01,,---,0.11,VWS V14.01,2013-05-25 12:12:00,
2013-05-25 08:15:00,46.2,40.7,29.94,NNW,332,11.0,16.0,81,0.01,,---,0.11,VWS V14.01,2013-05-25 12:15:00,
2013-05-25 08:17:00,46.2,40.7,29.94,WNW,296,7.0,11.0,81,0.01,,---,0.11,VWS V14.01,2013-05-25 12:17:00,
2013-05-25 08:22:00,46.4,40.9,29.94,NNW,329,6.0,15.0,81,0.01,,---,0.11,VWS V14.01,2013-05-25 12:22:00,
2013-05-25 08:27:00,46.6,41.1,29.94,WNW,299,8.0,15.0,81,0.01,,---,0.11,VWS V14.01,2013-05-25 12:27:00,
2013-05-25 08:30:00,46.7,40.9,29.94,NW,306,4.0,15.0,80,0.01,,---,0.11,VWS V14.01,2013-05-25 12:30:00,
2013-05-25 08:32:00,46.7,40.9,29.94,NW,315,9.0,15.0,80,0.01,,---,0.11,VWS V14.01,2013-05-25 12:32:00,
2013-05-25 08:38:00,46.9,41.1,29.94,WNW,300,20.0,20.0,80,0.01,,---,0.11,VWS V14.01,2013-05-25 12:38:00,
2013-05-25 08:43:00,47.1,41.3,29.94,NW,315,5.0,20.0,80,0.01,,---,0.11,VWS V14.01,2013-05-25 12:43:00,
2013-05-25 08:45:00,47.3,41.5,29.94,West,275,12.0,20.0,80,0.01,,---,0.11,VWS V14.01,2013-05-25 12:45:00,
2013-05-25 08:48:00,47.4,41.5,29.95,WNW,284,5.0,14.0,80,0.00,,---,0.11,VWS V14.01,2013-05-25 12:48:00,
2013-05-25 08:53:00,47.6,41.4,29.94,NW,316,10.0,19.0,79,0.00,,---,0.11,VWS V14.01,2013-05-25 12:53:00,
2013-05-25 08:58:00,47.9,41.7,29.95,NW,306,12.0,19.0,79,0.00,,---,0.11,VWS V14.01,2013-05-25 12:58:00,
2013-05-25 09:00:00,47.9,41.7,29.94,NW,304,6.0,23.0,79,0.00,,---,0.11,VWS V14.01,2013-05-25 13:00:00,
2013-05-25 09:03:00,48.0,41.8,29.95,NW,311,14.0,17.0,79,0.00,,---,0.11,VWS V14.01,2013-05-25 13:03:00,
2013-05-25 09:08:00,48.1,41.6,29.94,NW,325,2.0,17.0,78,0.00,,---,0.11,VWS V14.01,2013-05-25 13:08:00,
2013-05-25 09:13:00,48.3,41.8,29.94,WNW,302,6.0,17.0,78,0.00,,---,0.11,VWS V14.01,2013-05-25 13:13:00,
2013-05-25 09:15:00,48.3,41.8,29.94,WNW,302,13.0,17.0,78,0.00,,---,0.11,VWS V14.01,2013-05-25 13:15:00,
2013-05-25 09:18:00,48.3,41.8,29.95,West,271,15.0,20.0,78,0.00,,---,0.11,VWS V14.01,2013-05-25 13:18:00,
2013-05-25 09:23:00,48.3,41.4,29.94,NW,325,15.0,20.0,77,0.00,,---,0.11,VWS V14.01,2013-05-25 13:23:00,
2013-05-25 09:28:00,48.4,41.5,29.94,WNW,291,8.0,21.0,77,0.00,,---,0.11,VWS V14.01,2013-05-25 13:28:00,
2013-05-25 09:30:00,48.5,41.6,29.94,North,355,12.0,21.0,77,0.00,,---,0.11,VWS V14.01,2013-05-25 13:30:00,
2013-05-25 09:33:00,48.6,41.7,29.94,WNW,294,8.0,14.0,77,0.00,,---,0.11,VWS V14.01,2013-05-25 13:33:00,
2013-05-25 09:38:00,48.7,41.8,29.94,WNW,294,12.0,21.0,77,0.00,,---,0.11,VWS V14.01,2013-05-25 13:38:00,
2013-05-25 09:43:00,48.8,41.9,29.94,NNW,329,4.0,21.0,77,0.00,,---,0.11,VWS V14.01,2013-05-25 13:43:00,
2013-05-25 09:45:00,49.0,42.1,29.94,NW,318,3.0,21.0,77,0.00,,---,0.11,VWS V14.01,2013-05-25 13:45:00,
2013-05-25 09:48:00,49.2,42.3,29.94,WNW,298,16.0,16.0,77,0.00,,---,0.11,VWS V14.01,2013-05-25 13:48:00,
2013-05-25 09:53:00,49.5,42.6,29.94,WNW,286,8.0,17.0,77,0.00,,---,0.11,VWS V14.01,2013-05-25 13:53:00,
2013-05-25 09:58:00,49.7,42.1,29.94,NNW,340,9.0,24.0,75,0.00,,---,0.11,VWS V14.01,2013-05-25 13:58:00,
2013-05-25 10:00:00,49.8,42.2,29.94,NNW,329,12.0,24.0,75,0.00,,---,0.11,VWS V14.01,2013-05-25 14:00:00,
2013-05-25 10:03:00,49.9,42.3,29.93,NNW,336,24.0,24.0,75,0.00,,---,0.11,VWS V14.01,2013-05-25 14:03:00,
2013-05-25 10:08:00,49.9,42.0,29.94,WNW,296,11.0,24.0,74,0.00,,---,0.11,VWS V14.01,2013-05-25 14:08:00,
2013-05-25 10:13:00,50.0,42.0,29.93,NNW,335,23.0,24.0,74,0.00,,---,0.11,VWS V14.01,2013-05-25 14:13:00,
2013-05-25 10:15:00,50.2,42.2,29.93,NW,323,9.0,24.0,74,0.00,,---,0.11,VWS V14.01,2013-05-25 14:15:00,
2013-05-25 10:18:00,50.3,42.0,29.93,WNW,294,7.0,20.0,73,0.00,,---,0.11,VWS V14.01,2013-05-25 14:18:00,
2013-05-25 10:23:00,50.7,42.4,29.93,NW,319,13.0,23.0,73,0.00,,---,0.11,VWS V14.01,2013-05-25 14:23:00,
2013-05-25 10:29:00,50.8,42.1,29.93,NNW,341,18.0,25.0,72,0.00,,---,0.11,VWS V14.01,2013-05-25 14:29:00,
2013-05-25 10:30:00,50.8,42.5,29.93,NW,309,14.0,25.0,73,0.00,,---,0.11,VWS V14.01,2013-05-25 14:30:00,
2013-05-25 10:34:00,50.9,41.8,29.93,NNW,340,7.0,31.0,71,0.00,,---,0.11,VWS V14.01,2013-05-25 14:34:00,
2013-05-25 10:39:00,51.2,42.1,29.94,NNW,332,10.0,31.0,71,0.00,,---,0.11,VWS V14.01,2013-05-25 14:39:00,
2013-05-25 10:44:00,51.4,42.3,29.93,NNE,26,13.0,31.0,71,0.00,,---,0.11,VWS V14.01,2013-05-25 14:44:00,
2013-05-25 10:45:00,51.5,42.4,29.93,NW,313,11.0,31.0,71,0.00,,---,0.11,VWS V14.01,2013-05-25 14:45:00,
2013-05-25 10:49:00,51.4,42.0,29.94,NNW,335,20.0,32.0,70,0.00,,---,0.11,VWS V14.01,2013-05-25 14:49:00,
2013-05-25 10:54:00,51.5,42.4,29.94,NNE,15,15.0,32.0,71,0.00,,---,0.11,VWS V14.01,2013-05-25 14:54:00,
2013-05-25 10:59:00,51.6,42.9,29.93,NW,306,14.0,32.0,72,0.00,,---,0.11,VWS V14.01,2013-05-25 14:59:00,
2013-05-25 11:00:00,51.5,42.4,29.93,NNW,338,11.0,32.0,71,0.00,,---,0.11,VWS V14.01,2013-05-25 15:00:00,
2013-05-25 11:04:00,51.5,42.8,29.94,NNW,331,26.0,26.0,72,0.00,,---,0.11,VWS V14.01,2013-05-25 15:04:00,
2013-05-25 11:09:00,51.2,42.1,29.94,North,355,26.0,33.0,71,0.00,,---,0.11,VWS V14.01,2013-05-25 15:09:00,
2013-05-25 11:14:00,51.4,42.3,29.94,NE,40,7.0,33.0,71,0.00,,---,0.11,VWS V14.01,2013-05-25 15:14:00,
2013-05-25 11:15:00,51.8,42.7,29.94,NNW,344,11.0,33.0,71,0.00,,---,0.11,VWS V14.01,2013-05-25 15:15:00,
2013-05-25 11:19:00,52.0,42.5,29.94,NNW,339,22.0,28.0,70,0.00,,---,0.11,VWS V14.01,2013-05-25 15:19:00,
2013-05-25 11:24:00,52.5,43.0,29.94,NNW,334,20.0,28.0,70,0.00,,---,0.11,VWS V14.01,2013-05-25 15:24:00,
2013-05-25 11:29:00,52.8,42.5,29.94,NW,315,20.0,31.0,68,0.00,,---,0.11,VWS V14.01,2013-05-25 15:29:00,
2013-05-25 11:30:00,52.7,42.5,29.94,NNE,16,18.0,31.0,68,0.00,,---,0.11,VWS V14.01,2013-05-25 15:30:00,
2013-05-25 11:34:00,52.5,42.3,29.94,NNW,329,6.0,28.0,68,0.00,,---,0.11,VWS V14.01,2013-05-25 15:34:00,
2013-05-25 11:39:00,52.3,42.1,29.94,WNW,294,15.0,31.0,68,0.00,,---,0.11,VWS V14.01,2013-05-25 15:39:00,
2013-05-25 11:44:00,52.4,42.2,29.94,NW,322,16.0,31.0,68,0.00,,---,0.11,VWS V14.01,2013-05-25 15:44:00,
2013-05-25 11:45:00,52.4,42.2,29.94,North,355,12.0,31.0,68,0.00,,---,0.11,VWS V14.01,2013-05-25 15:45:00,
2013-05-25 11:49:00,52.6,42.3,29.94,WNW,293,15.0,29.0,68,0.00,,---,0.11,VWS V14.01,2013-05-25 15:49:00,
2013-05-25 11:54:00,52.6,42.3,29.94,NW,321,8.0,29.0,68,0.00,,---,0.11,VWS V14.01,2013-05-25 15:54:00,
2013-05-25 11:59:00,52.7,42.1,29.94,West,281,14.0,29.0,67,0.00,,---,0.11,VWS V14.01,2013-05-25 15:59:00,
2013-05-25 12:00:00,52.7,42.1,29.94,NW,311,22.0,29.0,67,0.00,,---,0.11,VWS V14.01,2013-05-25 16:00:00,
2013-05-25 12:04:00,53.0,42.3,29.94,WNW,296,12.0,21.0,67,0.00,,---,0.11,VWS V14.01,2013-05-25 16:04:00,
2013-05-25 12:09:00,52.8,41.8,29.94,West,272,8.0,31.0,66,0.00,,---,0.11,VWS V14.01,2013-05-25 16:09:00,
2013-05-25 12:14:00,52.7,42.1,29.95,NW,306,14.0,31.0,67,0.00,,---,0.11,VWS V14.01,2013-05-25 16:14:00,
2013-05-25 12:15:00,52.7,42.1,29.94,NNE,14,10.0,31.0,67,0.00,,---,0.11,VWS V14.01,2013-05-25 16:15:00,
2013-05-25 12:19:00,52.6,41.6,29.94,NNW,339,11.0,26.0,66,0.00,,---,0.11,VWS V14.01,2013-05-25 16:19:00,
2013-05-25 12:24:00,52.5,41.1,29.94,NNW,330,13.0,26.0,65,0.00,,---,0.11,VWS V14.01,2013-05-25 16:24:00,
2013-05-25 12:29:00,52.6,41.6,29.94,NNW,346,14.0,26.0,66,0.00,,---,0.11,VWS V14.01,2013-05-25 16:29:00,
2013-05-25 12:30:00,52.7,41.7,29.94,NW,315,10.0,26.0,66,0.00,,---,0.11,VWS V14.01,2013-05-25 16:30:00,
2013-05-25 12:34:00,52.8,41.0,29.94,NW,325,17.0,35.0,64,0.00,,---,0.11,VWS V14.01,2013-05-25 16:34:00,
2013-05-25 12:39:00,52.6,40.8,29.94,NW,309,19.0,36.0,64,0.00,,---,0.11,VWS V14.01,2013-05-25 16:39:00,
2013-05-25 12:45:00,52.7,40.9,29.94,WNW,300,16.0,36.0,64,0.00,,---,0.11,VWS V14.01,2013-05-25 16:45:00,
2013-05-25 12:50:00,52.9,41.1,29.94,WNW,299,16.0,25.0,64,0.00,,---,0.11,VWS V14.01,2013-05-25 16:50:00,
2013-05-25 12:55:00,53.1,41.3,29.94,NE,41,23.0,26.0,64,0.00,,---,0.11,VWS V14.01,2013-05-25 16:55:00,
2013-05-25 13:00:00,53.2,41.3,29.94,NNW,327,15.0,27.0,64,0.00,,---,0.11,VWS V14.01,2013-05-25 17:00:00,
2013-05-25 13:05:00,53.2,41.0,29.95,WNW,302,16.0,32.0,63,0.00,,---,0.11,VWS V14.01,2013-05-25 17:05:00,
2013-05-25 13:10:00,53.1,40.8,29.95,NW,324,11.0,32.0,63,0.00,,---,0.11,VWS V14.01,2013-05-25 17:10:00,
2013-05-25 13:15:00,53.0,41.2,29.95,NNW,330,17.0,32.0,64,0.00,,---,0.11,VWS V14.01,2013-05-25 17:15:00,
2013-05-25 13:20:00,52.9,41.1,29.95,NW,309,9.0,30.0,64,0.00,,---,0.11,VWS V14.01,2013-05-25 17:20:00,
2013-05-25 13:25:00,52.9,40.7,29.95,WNW,297,17.0,30.0,63,0.00,,---,0.11,VWS V14.01,2013-05-25 17:25:00,
2013-05-25 13:30:00,53.0,41.6,29.95,WNW,296,9.0,30.0,65,0.00,,---,0.11,VWS V14.01,2013-05-25 17:30:00,
2013-05-25 13:35:00,53.2,41.3,29.95,WNW,290,16.0,22.0,64,0.00,,---,0.11,VWS V14.01,2013-05-25 17:35:00,
2013-05-25 13:40:00,53.2,41.8,29.94,NW,308,14.0,22.0,65,0.00,,---,0.11,VWS V14.01,2013-05-25 17:40:00,
2013-05-25 13:45:00,52.9,41.1,29.95,North,5,14.0,34.0,64,0.00,,---,0.11,VWS V14.01,2013-05-25 17:45:00,
2013-05-25 13:50:00,52.8,41.4,29.94,WNW,288,14.0,22.0,65,0.00,,---,0.11,VWS V14.01,2013-05-25 17:50:00,
2013-05-25 13:55:00,53.0,41.6,29.94,NW,319,18.0,29.0,65,0.00,,---,0.11,VWS V14.01,2013-05-25 17:55:00,
2013-05-25 14:00:00,53.1,41.3,29.95,NNW,333,7.0,29.0,64,0.00,,---,0.11,VWS V14.01,2013-05-25 18:00:00,
2013-05-25 14:05:00,53.4,41.1,29.94,NNW,336,16.0,22.0,63,0.00,,---,0.11,VWS V14.01,2013-05-25 18:05:00,
2013-05-25 14:10:00,53.9,41.2,29.94,NW,304,18.0,26.0,62,0.00,,---,0.11,VWS V14.01,2013-05-25 18:10:00,
2013-05-25 14:15:00,54.1,41.4,29.94,NW,306,13.0,26.0,62,0.00,,---,0.11,VWS V14.01,2013-05-25 18:15:00,
2013-05-25 14:20:00,54.3,40.7,29.94,WNW,286,21.0,31.0,60,0.00,,---,0.11,VWS V14.01,2013-05-25 18:20:00,
2013-05-25 14:25:00,54.5,40.9,29.94,WNW,287,13.0,31.0,60,0.00,,---,0.11,VWS V14.01,2013-05-25 18:25:00,
2013-05-25 14:30:00,54.8,40.8,29.94,NW,305,10.0,31.0,59,0.00,,---,0.11,VWS V14.01,2013-05-25 18:30:00,
2013-05-25 14:35:00,55.5,41.9,29.94,NNW,331,7.0,13.0,60,0.00,,---,0.11,VWS V14.01,2013-05-25 18:35:00,
2013-05-25 14:40:00,55.8,41.3,29.94,NW,319,12.0,25.0,58,0.00,,---,0.11,VWS V14.01,2013-05-25 18:40:00,
2013-05-25 14:45:00,55.8,40.4,29.94,NNW,336,10.0,25.0,56,0.00,,---,0.11,VWS V14.01,2013-05-25 18:45:00,
2013-05-25 14:50:00,55.5,40.5,29.94,NW,306,13.0,20.0,57,0.00,,---,0.11,VWS V14.01,2013-05-25 18:50:00,
2013-05-25 14:56:00,55.1,40.2,29.94,NW,323,16.0,23.0,57,0.00,,---,0.11,VWS V14.01,2013-05-25 18:56:00,
2013-05-25 15:00:00,55.1,40.2,29.94,NW,319,25.0,36.0,57,0.00,,---,0.11,VWS V14.01,2013-05-25 19:00:00,
2013-05-25 15:01:00,55.1,40.2,29.94,NNW,344,15.0,36.0,57,0.00,,---,0.11,VWS V14.01,2013-05-25 19:01:00,
2013-05-25 15:06:00,55.3,39.9,29.94,NW,322,16.0,27.0,56,0.00,,---,0.11,VWS V14.01,2013-05-25 19:06:00,
2013-05-25 15:11:00,55.7,40.7,29.94,WNW,294,9.0,27.0,57,0.00,,---,0.11,VWS V14.01,2013-05-25 19:11:00,
2013-05-25 15:15:00,56.0,40.1,29.94,NNW,331,8.0,31.0,55,0.00,,---,0.11,VWS V14.01,2013-05-25 19:15:00,
2013-05-25 15:16:00,55.9,40.5,29.94,NNW,331,11.0,31.0,56,0.00,,---,0.11,VWS V14.01,2013-05-25 19:16:00,
2013-05-25 15:21:00,56.3,40.4,29.94,West,269,7.0,18.0,55,0.00,,---,0.11,VWS V14.01,2013-05-25 19:21:00,
2013-05-25 15:26:00,56.5,40.1,29.94,NW,319,11.0,20.0,54,0.00,,---,0.11,VWS V14.01,2013-05-25 19:26:00,
2013-05-25 15:30:00,56.2,40.3,29.93,NW,316,9.0,20.0,55,0.00,,---,0.11,VWS V14.01,2013-05-25 19:30:00,
2013-05-25 15:31:00,56.2,40.3,29.93,WNW,283,9.0,20.0,55,0.00,,---,0.11,VWS V14.01,2013-05-25 19:31:00,
2013-05-25 15:36:00,56.0,40.5,29.93,North,11,7.0,23.0,56,0.00,,---,0.11,VWS V14.01,2013-05-25 19:36:00,
2013-05-25 15:41:00,56.5,40.5,29.94,NW,317,12.0,25.0,55,0.00,,---,0.11,VWS V14.01,2013-05-25 19:41:00,
2013-05-25 15:45:00,56.3,39.9,29.94,North,355,10.0,27.0,54,0.00,,---,0.11,VWS V14.01,2013-05-25 19:45:00,
2013-05-25 15:46:00,56.3,39.9,29.94,North,355,10.0,27.0,54,0.00,,---,0.11,VWS V14.01,2013-05-25 19:46:00,
2013-05-25 15:51:00,55.4,39.0,29.94,NW,319,10.0,33.0,54,0.00,,---,0.11,VWS V14.01,2013-05-25 19:51:00,
2013-05-25 15:56:00,55.5,39.1,29.94,NNW,344,8.0,33.0,54,0.00,,---,0.11,VWS V14.01,2013-05-25 19:56:00,
2013-05-25 16:00:00,55.9,39.0,29.94,NW,317,16.0,33.0,53,0.00,,---,0.11,VWS V14.01,2013-05-25 20:00:00,
2013-05-25 16:01:00,55.9,39.0,29.94,West,275,16.0,16.0,53,0.00,,---,0.11,VWS V14.01,2013-05-25 20:01:00,
2013-05-25 16:06:00,55.9,39.0,29.94,NW,322,10.0,27.0,53,0.00,,---,0.11,VWS V14.01,2013-05-25 20:06:00,
2013-05-25 16:11:00,56.1,39.7,29.95,NNW,346,7.0,27.0,54,0.00,,---,0.11,VWS V14.01,2013-05-25 20:11:00,
2013-05-25 16:15:00,55.8,39.4,29.94,NW,318,17.0,27.0,54,0.00,,---,0.11,VWS V14.01,2013-05-25 20:15:00,
2013-05-25 16:16:00,55.8,39.4,29.94,NNW,342,12.0,17.0,54,0.00,,---,0.11,VWS V14.01,2013-05-25 20:16:00,
2013-05-25 16:21:00,55.3,39.9,29.94,North,355,12.0,24.0,56,0.00,,---,0.11,VWS V14.01,2013-05-25 20:21:00,
2013-05-25 16:26:00,55.5,40.5,29.94,NW,310,10.0,24.0,57,0.00,,---,0.11,VWS V14.01,2013-05-25 20:26:00,
2013-05-25 16:30:00,56.0,40.1,29.94,NNW,340,18.0,26.0,55,0.00,,---,0.11,VWS V14.01,2013-05-25 20:30:00,
2013-05-25 16:31:00,56.0,39.6,29.94,NW,308,16.0,19.0,54,0.00,,---,0.11,VWS V14.01,2013-05-25 20:31:00,
2013-05-25 16:36:00,55.8,38.9,29.94,NW,313,11.0,32.0,53,0.00,,---,0.11,VWS V14.01,2013-05-25 20:36:00,
2013-05-25 16:41:00,55.9,39.5,29.94,NW,311,28.0,32.0,54,0.00,,---,0.11,VWS V14.01,2013-05-25 20:41:00,
2013-05-25 16:45:00,56.2,39.3,29.94,NNW,346,12.0,32.0,53,0.00,,---,0.11,VWS V14.01,2013-05-25 20:45:00,
2013-05-25 16:46:00,56.3,38.9,29.94,NW,307,14.0,25.0,52,0.00,,---,0.11,VWS V14.01,2013-05-25 20:46:00,
2013-05-25 16:51:00,56.9,40.4,29.95,NW,313,12.0,25.0,54,0.00,,---,0.11,VWS V14.01,2013-05-25 20:51:00,
2013-05-25 16:56:00,56.6,39.2,29.95,WNW,303,16.0,28.0,52,0.00,,---,0.11,VWS V14.01,2013-05-25 20:56:00,
2013-05-25 17:00:00,55.9,38.5,29.95,NW,307,16.0,28.0,52,0.00,,---,0.11,VWS V14.01,2013-05-25 21:00:00,
2013-05-25 17:02:00,55.8,38.9,29.94,WNW,301,11.0,14.0,53,0.00,,---,0.11,VWS V14.01,2013-05-25 21:02:00,
2013-05-25 17:07:00,55.5,38.7,29.95,NW,305,11.0,24.0,53,0.00,,---,0.11,VWS V14.01,2013-05-25 21:07:00,
2013-05-25 17:12:00,55.5,38.2,29.95,WNW,302,26.0,26.0,52,0.00,,---,0.11,VWS V14.01,2013-05-25 21:12:00,
2013-05-25 17:15:00,55.5,38.2,29.95,North,355,7.0,26.0,52,0.00,,---,0.11,VWS V14.01,2013-05-25 21:15:00,
2013-05-25 17:17:00,55.6,38.8,29.95,NW,316,10.0,11.0,53,0.00,,---,0.11,VWS V14.01,2013-05-25 21:17:00,
2013-05-25 17:22:00,55.9,38.0,29.95,NW,309,10.0,24.0,51,0.00,,---,0.11,VWS V14.01,2013-05-25 21:22:00,
2013-05-25 17:27:00,56.3,37.4,29.95,WNW,299,15.0,27.0,49,0.00,,---,0.11,VWS V14.01,2013-05-25 21:27:00,
2013-05-25 17:30:00,56.2,37.3,29.95,NNW,338,13.0,27.0,49,0.00,,---,0.11,VWS V14.01,2013-05-25 21:30:00,
2013-05-25 17:32:00,56.2,37.3,29.95,West,273,14.0,15.0,49,0.00,,---,0.11,VWS V14.01,2013-05-25 21:32:00,
2013-05-25 17:37:00,56.1,37.7,29.95,NW,306,24.0,27.0,50,0.00,,---,0.11,VWS V14.01,2013-05-25 21:37:00,
2013-05-25 17:42:00,55.9,37.5,29.96,NW,311,18.0,27.0,50,0.00,,---,0.11,VWS V14.01,2013-05-25 21:42:00,
2013-05-25 17:45:00,55.9,37.5,29.96,WNW,290,9.0,27.0,50,0.00,,---,0.11,VWS V14.01,2013-05-25 21:45:00,
2013-05-25 17:47:00,56.0,37.6,29.96,NW,313,11.0,20.0,50,0.00,,---,0.11,VWS V14.01,2013-05-25 21:47:00,
2013-05-25 17:52:00,56.5,37.1,29.96,NW,304,9.0,22.0,48,0.00,,---,0.11,VWS V14.01,2013-05-25 21:52:00,
2013-05-25 17:57:00,56.2,36.3,29.96,WNW,284,7.0,22.0,47,0.00,,---,0.11,VWS V14.01,2013-05-25 21:57:00,
2013-05-25 18:00:00,55.9,37.0,29.96,NNW,332,6.0,22.0,49,0.00,,---,0.11,VWS V14.01,2013-05-25 22:00:00,
2013-05-25 18:02:00,55.8,36.9,29.96,NNW,337,6.0,8.0,49,0.00,,---,0.11,VWS V14.01,2013-05-25 22:02:00,
2013-05-25 18:07:00,55.7,37.4,29.97,North,349,11.0,13.0,50,0.00,,---,0.11,VWS V14.01,2013-05-25 22:07:00,
2013-05-25 18:12:00,55.5,37.7,29.97,North,355,4.0,17.0,51,0.00,,---,0.11,VWS V14.01,2013-05-25 22:12:00,
2013-05-25 18:15:00,55.3,37.5,29.97,NW,313,5.0,17.0,51,0.00,,---,0.11,VWS V14.01,2013-05-25 22:15:00,
2013-05-25 18:17:00,55.3,38.0,29.97,NW,310,5.0,6.0,52,0.00,,---,0.11,VWS V14.01,2013-05-25 22:17:00,
2013-05-25 18:22:00,55.0,37.7,29.97,NNW,337,11.0,13.0,52,0.00,,---,0.11,VWS V14.01,2013-05-25 22:22:00,
2013-05-25 18:27:00,55.0,37.7,29.97,NNE,12,7.0,15.0,52,0.00,,---,0.11,VWS V14.01,2013-05-25 22:27:00,
2013-05-25 18:30:00,55.0,37.2,29.97,North,11,9.0,16.0,51,0.00,,---,0.11,VWS V14.01,2013-05-25 22:30:00,
2013-05-25 18:32:00,55.0,36.7,29.97,WNW,303,17.0,18.0,50,0.00,,---,0.11,VWS V14.01,2013-05-25 22:32:00,
2013-05-25 18:37:00,55.2,36.4,29.98,NNW,331,8.0,21.0,49,0.00,,---,0.11,VWS V14.01,2013-05-25 22:37:00,
2013-05-25 18:42:00,55.2,36.4,29.98,ENE,71,3.0,21.0,49,0.00,,---,0.11,VWS V14.01,2013-05-25 22:42:00,
2013-05-25 18:45:00,55.1,36.3,29.98,NW,325,7.0,21.0,49,0.00,,---,0.11,VWS V14.01,2013-05-25 22:45:00,
2013-05-25 18:47:00,55.0,36.2,29.98,West,279,8.0,18.0,49,0.00,,---,0.11,VWS V14.01,2013-05-25 22:47:00,
2013-05-25 18:52:00,55.0,36.2,29.98,WNW,293,6.0,18.0,49,0.00,,---,0.11,VWS V14.01,2013-05-25 22:52:00,
2013-05-25 18:57:00,55.0,36.2,29.98,North,5,19.0,21.0,49,0.00,,---,0.11,VWS V14.01,2013-05-25 22:57:00,
2013-05-25 19:00:00,55.1,35.8,29.98,WNW,301,9.0,21.0,48,0.00,,---,0.11,VWS V14.01,2013-05-25 23:00:00,
2013-05-25 19:02:00,55.1,35.8,29.98,NNW,336,7.0,15.0,48,0.00,,---,0.11,VWS V14.01,2013-05-25 23:02:00,
2013-05-25 19:07:00,55.0,36.2,29.99,North,355,6.0,17.0,49,0.00,,---,0.11,VWS V14.01,2013-05-25 23:07:00,
2013-05-25 19:13:00,54.8,36.5,30.00,West,273,11.0,17.0,50,0.00,,---,0.11,VWS V14.01,2013-05-25 23:13:00,
2013-05-25 19:15:00,54.2,38.4,30.01,NW,318,7.0,20.0,55,0.00,,---,0.11,VWS V14.01,2013-05-25 23:15:00,
2013-05-25 19:18:00,53.4,38.1,30.01,NW,304,8.0,15.0,56,0.00,,---,0.11,VWS V14.01,2013-05-25 23:18:00,
2013-05-25 19:23:00,51.8,38.4,30.01,NNW,345,7.0,15.0,60,0.00,,---,0.11,VWS V14.01,2013-05-25 23:23:00,
2013-05-25 19:28:00,51.2,38.6,30.00,WNW,302,5.0,15.0,62,0.00,,---,0.11,VWS V14.01,2013-05-25 23:28:00,
2013-05-25 19:30:00,51.0,38.9,30.00,NW,312,5.0,15.0,63,0.00,,---,0.11,VWS V14.01,2013-05-25 23:30:00,
2013-05-25 19:33:00,50.9,38.8,30.00,NW,322,0.0,6.0,63,0.00,,---,0.11,VWS V14.01,2013-05-25 23:33:00,
2013-05-25 19:38:00,50.9,39.2,30.00,North,355,3.0,6.0,64,0.00,,---,0.11,VWS V14.01,2013-05-25 23:38:00,
2013-05-25 19:43:00,50.8,39.1,30.01,NNW,345,2.0,6.0,64,0.00,,---,0.11,VWS V14.01,2013-05-25 23:43:00,
2013-05-25 19:45:00,50.8,39.1,30.01,NNW,327,1.0,6.0,64,0.00,,---,0.11,VWS V14.01,2013-05-25 23:45:00,
2013-05-25 19:48:00,50.8,39.1,30.01,NNW,327,1.0,3.0,64,0.00,,---,0.11,VWS V14.01,2013-05-25 23:48:00,
2013-05-25 19:53:00,50.8,39.1,30.01,NW,313,3.0,4.0,64,0.00,,---,0.11,VWS V14.01,2013-05-25 23:53:00,
2013-05-25 19:58:00,51.2,38.6,30.01,North,355,10.0,10.0,62,0.00,,---,0.11,VWS V14.01,2013-05-25 23:58:00,
2013-05-25 20:00:00,51.8,37.9,30.01,WNW,288,7.0,11.0,59,0.00,,---,0.11,VWS V14.01,2013-05-26 00:00:00,
2013-05-25 20:03:00,52.1,37.8,30.01,NNW,331,7.0,10.0,58,0.00,,---,0.11,VWS V14.01,2013-05-26 00:03:00,
2013-05-25 20:08:00,52.4,38.1,30.01,NW,313,3.0,10.0,58,0.00,,---,0.11,VWS V14.01,2013-05-26 00:08:00,
2013-05-25 20:13:00,52.7,37.0,30.01,NW,317,3.0,13.0,55,0.00,,---,0.11,VWS V14.01,2013-05-26 00:13:00,
2013-05-25 20:15:00,52.8,36.6,30.01,NNW,331,9.0,15.0,54,0.00,,---,0.11,VWS V14.01,2013-05-26 00:15:00,
2013-05-25 20:18:00,52.9,36.7,30.01,NW,324,4.0,10.0,54,0.00,,---,0.11,VWS V14.01,2013-05-26 00:18:00,
2013-05-25 20:23:00,53.0,36.3,30.01,WNW,298,5.0,12.0,53,0.00,,---,0.11,VWS V14.01,2013-05-26 00:23:00,
2013-05-25 20:28:00,53.1,36.4,30.01,NNW,336,5.0,16.0,53,0.00,,---,0.11,VWS V14.01,2013-05-26 00:28:00,
2013-05-25 20:30:00,53.1,36.0,30.01,NW,312,7.0,16.0,52,0.00,,---,0.11,VWS V14.01,2013-05-26 00:30:00,
2013-05-25 20:33:00,53.0,35.9,30.01,NNW,327,6.0,9.0,52,0.00,,---,0.11,VWS V14.01,2013-05-26 00:33:00,
2013-05-25 20:38:00,53.0,35.9,30.01,NNW,338,5.0,12.0,52,0.00,,---,0.11,VWS V14.01,2013-05-26 00:38:00,
2013-05-25 20:43:00,53.0,35.9,30.01,NNW,329,12.0,14.0,52,0.00,,---,0.11,VWS V14.01,2013-05-26 00:43:00,
2013-05-25 20:45:00,53.1,36.0,30.01,NNW,329,6.0,14.0,52,0.00,,---,0.11,VWS V14.01,2013-05-26 00:45:00,
2013-05-25 20:48:00,53.1,36.0,30.01,NW,323,9.0,12.0,52,0.00,,---,0.11,VWS V14.01,2013-05-26 00:48:00,
2013-05-25 20:53:00,53.1,36.0,30.01,WNW,288,8.0,15.0,52,0.00,,---,0.11,VWS V14.01,2013-05-26 00:53:00,
2013-05-25 20:58:00,53.0,35.9,30.01,NW,313,6.0,15.0,52,0.00,,---,0.11,VWS V14.01,2013-05-26 00:58:00,
2013-05-25 21:00:00,53.1,35.5,30.01,WNW,299,9.0,18.0,51,0.00,,---,0.11,VWS V14.01,2013-05-26 01:00:00,
2013-05-25 21:03:00,53.2,35.6,30.01,NW,321,7.0,13.0,51,0.00,,---,0.11,VWS V14.01,2013-05-26 01:03:00,
2013-05-25 21:08:00,53.2,35.1,30.01,NW,306,9.0,18.0,50,0.00,,---,0.11,VWS V14.01,2013-05-26 01:08:00,
2013-05-25 21:13:00,53.5,34.8,30.01,NW,316,11.0,24.0,49,0.00,,---,0.11,VWS V14.01,2013-05-26 01:13:00,
2013-05-25 21:15:00,53.5,34.8,30.01,WNW,295,10.0,24.0,49,0.00,,---,0.11,VWS V14.01,2013-05-26 01:15:00,
2013-05-25 21:18:00,53.5,34.8,30.01,NW,316,7.0,18.0,49,0.00,,---,0.11,VWS V14.01,2013-05-26 01:18:00,
2013-05-25 21:23:00,53.6,34.9,30.01,NW,324,21.0,22.0,49,0.00,,---,0.11,VWS V14.01,2013-05-26 01:23:00,
2013-05-25 21:29:00,53.6,34.9,30.01,WNW,288,7.0,22.0,49,0.00,,---,0.11,VWS V14.01,2013-05-26 01:29:00,
2013-05-25 21:30:00,53.5,34.3,30.01,NW,318,9.0,22.0,48,0.00,,---,0.11,VWS V14.01,2013-05-26 01:30:00,
2013-05-25 21:34:00,53.5,34.3,30.01,NW,311,10.0,16.0,48,0.00,,---,0.11,VWS V14.01,2013-05-26 01:34:00,
2013-05-25 21:39:00,53.4,34.7,30.01,NW,311,8.0,17.0,49,0.00,,---,0.11,VWS V14.01,2013-05-26 01:39:00,
2013-05-25 21:44:00,53.4,34.7,30.01,NNW,338,14.0,27.0,49,0.00,,---,0.11,VWS V14.01,2013-05-26 01:44:00,
2013-05-25 21:45:00,53.4,34.2,30.01,WNW,303,14.0,28.0,48,0.00,,---,0.11,VWS V14.01,2013-05-26 01:45:00,
2013-05-25 21:49:00,53.4,34.2,30.02,NNW,337,9.0,24.0,48,0.00,,---,0.11,VWS V14.01,2013-05-26 01:49:00,
2013-05-25 21:54:00,53.3,34.7,30.02,WNW,298,16.0,24.0,49,0.00,,---,0.11,VWS V14.01,2013-05-26 01:54:00,
2013-05-25 21:59:00,53.2,34.5,30.02,WNW,300,11.0,25.0,49,0.00,,---,0.11,VWS V14.01,2013-05-26 01:59:00,
2013-05-25 22:00:00,53.2,34.5,30.02,NNW,344,14.0,25.0,49,0.00,,---,0.11,VWS V14.01,2013-05-26 02:00:00,
2013-05-25 22:04:00,53.1,34.5,30.03,WNW,282,6.0,24.0,49,0.00,,---,0.11,VWS V14.01,2013-05-26 02:04:00,
2013-05-25 22:09:00,52.8,34.7,30.02,WNW,295,9.0,24.0,50,0.00,,---,0.11,VWS V14.01,2013-05-26 02:09:00,
2013-05-25 22:14:00,52.6,34.5,30.02,WNW,298,16.0,24.0,50,0.00,,---,0.11,VWS V14.01,2013-05-26 02:14:00,
2013-05-25 22:15:00,52.7,34.6,30.02,NW,304,10.0,24.0,50,0.00,,---,0.11,VWS V14.01,2013-05-26 02:15:00,
2013-05-25 22:19:00,52.7,35.1,30.02,NNW,333,10.0,18.0,51,0.00,,---,0.11,VWS V14.01,2013-05-26 02:19:00,
2013-05-25 22:24:00,52.5,34.9,30.02,NW,309,3.0,18.0,51,0.00,,---,0.11,VWS V14.01,2013-05-26 02:24:00,
2013-05-25 22:29:00,52.4,35.3,30.01,West,265,9.0,18.0,52,0.00,,---,0.11,VWS V14.01,2013-05-26 02:29:00,
2013-05-25 22:30:00,52.3,35.2,30.01,North,360,4.0,18.0,52,0.00,,---,0.11,VWS V14.01,2013-05-26 02:30:00,
2013-05-25 22:34:00,52.2,35.1,30.01,WNW,286,9.0,11.0,52,0.00,,---,0.11,VWS V14.01,2013-05-26 02:34:00,
2013-05-25 22:39:00,52.1,35.0,30.01,NW,317,9.0,12.0,52,0.00,,---,0.11,VWS V14.01,2013-05-26 02:39:00,
2013-05-25 22:44:00,52.0,34.9,30.01,NW,320,12.0,14.0,52,0.00,,---,0.11,VWS V14.01,2013-05-26 02:44:00,
2013-05-25 22:45:00,52.1,35.0,30.01,NNW,335,7.0,16.0,52,0.00,,---,0.11,VWS V14.01,2013-05-26 02:45:00,
2013-05-25 22:49:00,52.1,35.0,30.01,WNW,302,9.0,11.0,52,0.00,,---,0.11,VWS V14.01,2013-05-26 02:49:00,
2013-05-25 22:54:00,52.2,35.1,30.01,NNW,339,7.0,13.0,52,0.00,,---,0.11,VWS V14.01,2013-05-26 02:54:00,
2013-05-25 22:59:00,52.2,35.1,30.01,NNW,331,5.0,13.0,52,0.00,,---,0.11,VWS V14.01,2013-05-26 02:59:00,
2013-05-25 23:00:00,52.2,35.1,30.01,NW,311,10.0,13.0,52,0.00,,---,0.11,VWS V14.01,2013-05-26 03:00:00,
2013-05-25 23:04:00,52.2,35.1,30.00,WNW,294,3.0,11.0,52,0.00,,---,0.11,VWS V14.01,2013-05-26 03:04:00,
2013-05-25 23:09:00,52.3,35.2,30.00,NW,305,9.0,11.0,52,0.00,,---,0.11,VWS V14.01,2013-05-26 03:09:00,
2013-05-25 23:14:00,52.2,35.1,30.00,NW,313,5.0,12.0,52,0.00,,---,0.11,VWS V14.01,2013-05-26 03:14:00,
2013-05-25 23:15:00,52.1,35.0,30.00,WNW,298,8.0,12.0,52,0.00,,---,0.11,VWS V14.01,2013-05-26 03:15:00,
2013-05-25 23:19:00,52.1,35.0,30.00,WNW,295,9.0,14.0,52,0.00,,---,0.11,VWS V14.01,2013-05-26 03:19:00,
2013-05-25 23:24:00,52.1,35.0,30.00,NW,321,5.0,14.0,52,0.00,,---,0.11,VWS V14.01,2013-05-26 03:24:00,
2013-05-25 23:29:00,51.8,35.2,30.00,NNW,328,4.0,14.0,53,0.00,,---,0.11,VWS V14.01,2013-05-26 03:29:00,
2013-05-25 23:30:00,51.7,35.1,30.00,NNW,338,5.0,14.0,53,0.00,,---,0.11,VWS V14.01,2013-05-26 03:30:00,
2013-05-25 23:35:00,51.6,35.0,30.00,NNW,336,1.0,8.0,53,0.00,,---,0.11,VWS V14.01,2013-05-26 03:35:00,
2013-05-25 23:40:00,51.4,35.3,30.01,NNW,336,0.0,8.0,54,0.00,,---,0.11,VWS V14.01,2013-05-26 03:40:00,
2013-05-25 23:45:00,51.2,35.6,30.00,NNW,336,0.0,8.0,55,0.00,,---,0.11,VWS V14.01,2013-05-26 03:45:00,
2013-05-25 23:50:00,51.0,35.9,30.01,NNW,336,0.0,3.0,56,0.00,,---,0.11,VWS V14.01,2013-05-26 03:50:00,
2013-05-25 23:55:00,50.7,36.0,30.00,North,355,6.0,8.0,57,0.00,,---,0.11,VWS V14.01,2013-05-26 03:55:00,